DW6536 Weather Reports


time (UTC)temp
C
wind
direction
speed
KPH
gust
KPH
rain 1hr
cm
rain 24hr
cm
rain mn
cm
humidity
%
barometer
mb
20220927014515 25 27 1.6 0.0 0.00 0.00 0.00 34 1016.3
20220927013011 26 44 1.6 0.0 0.00 0.00 0.00 33 1016.0
20220927011507 26 326 1.6 0.0 0.00 0.00 0.00 32 1015.7
20220927010008 26 27 1.6 0.0 0.00 0.00 0.00 32 1015.4
20220927004505 27 6 1.6 0.0 0.00 0.00 0.00 32 1015.3
20220927003010 28 27 3.2 0.0 0.00 0.00 0.00 30 1015.2
20220927001504 28 37 1.6 0.0 0.00 0.00 0.00 29 1014.9
20220927000006 28 37 1.6 0.0 0.00 0.00 0.00 29 1014.8
20220926234503 29 56 1.6 0.0 0.00 0.00 0.00 29 1014.5
20220926233007 30 104 1.6 0.0 0.00 0.00 0.00 29 1014.4
20220926231502 30 48 1.6 0.0 0.00 0.00 0.00 29 1014.3
20220926230119 31 54 1.6 0.0 0.00 0.00 0.00 28 1014.3
20220926224600 31 34 1.6 0.0 0.00 0.00 0.00 28 1014.2
20220926223104 31 86 1.6 0.0 0.00 0.00 0.00 28 1014.2
20220926221605 31 93 1.6 0.0 0.00 0.00 0.00 27 1014.2
20220926220103 31 61 1.6 0.0 0.00 0.00 0.00 26 1014.3
20220926214559 31 354 3.2 0.0 0.00 0.00 0.00 27 1014.3
20220926213058 31 329 3.2 0.0 0.00 0.00 0.00 26 1014.4
20220926211559 32 2 3.2 0.0 0.00 0.00 0.00 27 1014.4
20220926210055 32 54 3.2 0.0 0.00 0.00 0.00 27 1014.5
20220926204554 31 49 3.2 0.0 0.00 0.00 0.00 26 1014.5
20220926203054 31 24 3.2 0.0 0.00 0.00 0.00 26 1014.8
20220926201553 31 24 3.2 0.0 0.00 0.00 0.00 28 1014.8
20220926200057 31 52 3.2 0.0 0.00 0.00 0.00 28 1015.0
20220926194552 31 40 3.2 0.0 0.00 0.00 0.00 27 1015.1
20220926193123 31 2 3.2 0.0 0.00 0.00 0.00 28 1015.5
20220926191630 31 24 3.2 0.0 0.00 0.00 0.00 28 1015.8
20220926190105 31 55 3.2 0.0 0.00 0.00 0.00 28 1016.0
20220926184544 30 4 3.2 0.0 0.00 0.00 0.00 31 1016.3
20220926183043 30 64 3.2 0.0 0.00 0.00 0.00 30 1016.6
20220926181547 30 59 3.2 0.0 0.00 0.00 0.00 30 1016.9
20220926180038 29 56 3.2 0.0 0.00 0.00 0.00 32 1017.1
20220926174534 28 46 4.8 0.0 0.00 0.00 0.00 35 1017.3
20220926173048 28 23 4.8 0.0 0.00 0.00 0.00 34 1017.5
20220926171532 28 41 3.2 0.0 0.00 0.00 0.00 35 1017.6
20220926170034 27 46 3.2 0.0 0.00 0.00 0.00 37 1017.6
20220926164527 27 130 4.8 0.0 0.00 0.00 0.00 37 1017.7
20220926163029 27 50 4.8 0.0 0.00 0.00 0.00 38 1017.8
20220926161541 26 23 3.2 0.0 0.00 0.00 0.00 40 1017.9
20220926160035 26 21 4.8 0.0 0.00 0.00 0.00 40 1017.9
20220926154542 26 350 3.2 0.0 0.00 0.00 0.00 42 1017.7
20220926153015 26 42 4.8 0.0 0.00 0.00 0.00 41 1017.7
20220926151515 25 23 3.2 0.0 0.00 0.00 0.00 44 1017.7
20220926150007 24 16 3.2 0.0 0.00 0.00 0.00 45 1017.6
20220926144516 24 18 3.2 0.0 0.00 0.00 0.00 47 1017.5
20220926143016 23 32 3.2 0.0 0.00 0.00 0.00 48 1017.4
20220926141503 23 22 3.2 0.0 0.00 0.00 0.00 48 1017.2
20220926140002 23 35 3.2 0.0 0.00 0.00 0.00 48 1017.2
20220926134602 23 36 3.2 0.0 0.00 0.00 0.00 49 1017.0
20220926133059 23 48 3.2 0.0 0.00 0.00 0.00 48 1016.7
20220926131606 23 63 1.6 0.0 0.00 0.00 0.00 49 1016.6
20220926130055 23 10 3.2 0.0 0.00 0.00 0.00 48 1016.4
20220926124552 23 36 1.6 0.0 0.00 0.00 0.00 48 1016.0
20220926123059 23 347 3.2 0.0 0.00 0.00 0.00 47 1015.7
20220926121558 23 15 3.2 0.0 0.00 0.00 0.00 47 1015.5
20220926120052 23 44 1.6 0.0 0.00 0.00 0.00 47 1015.5
20220926114548 23 41 1.6 0.0 0.00 0.00 0.00 47 1015.2
20220926113054 24 16 1.6 0.0 0.00 0.00 0.00 47 1015.0
20220926111543 24 57 3.2 0.0 0.00 0.00 0.00 48 1014.8
20220926110046 24 6 3.2 0.0 0.00 0.00 0.00 50 1014.6
20220926104537 24 14 1.6 0.0 0.00 0.00 0.00 53 1014.4
20220926103035 24 22 1.6 0.0 0.00 0.00 0.00 55 1014.2
20220926101537 24 47 1.6 0.0 0.00 0.00 0.00 61 1014.1
20220926100030 23 343 0.0 0.0 0.00 0.00 0.00 66 1014.0
20220926094529 23 358 0.0 0.0 0.00 0.00 0.00 69 1013.8
20220926093107 23 325 0.0 0.0 0.00 0.00 0.00 69 1013.6
20220926091535 23 351 0.0 0.0 0.00 0.00 0.00 70 1013.5
20220926090028 23 320 0.0 0.0 0.00 0.00 0.00 70 1013.5
20220926084527 23 326 0.0 0.0 0.00 0.00 0.00 69 1013.4
20220926083047 23 333 0.0 0.0 0.00 0.00 0.00 68 1013.6
20220926081526 24 333 0.0 0.0 0.00 0.00 0.00 68 1013.6
20220926080025 24 333 0.0 0.0 0.00 0.00 0.00 67 1013.8
20220926074524 24 333 0.0 0.0 0.00 0.00 0.00 68 1013.8
20220926073022 23 303 0.0 0.0 0.00 0.00 0.00 68 1013.7
20220926071520 23 301 0.0 0.0 0.00 0.00 0.00 70 1013.6
20220926070018 23 19 0.0 0.0 0.00 0.00 0.00 72 1013.5
20220926064517 23 126 0.0 0.0 0.00 0.00 0.00 73 1013.5
20220926063016 23 126 0.0 0.0 0.00 0.00 0.00 73 1013.4
20220926061515 23 126 0.0 0.0 0.00 0.00 0.00 74 1013.4
20220926060016 22 126 0.0 0.0 0.00 0.00 0.00 73 1013.4
20220926054514 22 126 0.0 0.0 0.00 0.00 0.00 73 1013.4
20220926053018 23 126 0.0 0.0 0.00 0.00 0.00 72 1013.4
20220926051526 23 126 0.0 0.0 0.00 0.00 0.00 70 1013.5
20220926050008 23 126 0.0 0.0 0.00 0.00 0.00 70 1013.5
20220926044507 23 126 0.0 0.0 0.00 0.00 0.00 70 1013.4
20220926043007 23 126 0.0 0.0 0.00 0.00 0.00 69 1013.3
20220926041507 23 126 0.0 0.0 0.00 0.00 0.00 69 1013.2
20220926040007 23 126 0.0 0.0 0.00 0.00 0.00 68 1013.2
20220926034510 23 126 0.0 0.0 0.00 0.00 0.00 67 1013.2
20220926033006 24 126 0.0 0.0 0.00 0.00 0.00 65 1013.1
20220926031505 25 126 0.0 0.0 0.00 0.00 0.00 63 1012.9
20220926030008 25 126 0.0 0.0 0.00 0.00 0.00 63 1012.8
20220926024504 25 126 0.0 0.0 0.00 0.00 0.00 62 1012.8
20220926023004 25 126 0.0 0.0 0.00 0.00 0.00 63 1012.6
20220926021503 25 126 0.0 0.0 0.00 0.00 0.00 61 1012.3
20220926020003 26 126 0.0 0.0 0.00 0.00 0.00 60 1012.1